Location: Buch
(49.7331°N, 12.1098°E)
Time: 09:20:31
(UTC+00:00)

Cosmos 1943 Rocket - Pass Details

Date: 12 May 2021
Orbit: 813 x 842 km, 71.0° (Epoch: 13 June)

Event Time Altitude Azimuth Distance (km) Brightness Sun altitude
Exits shadow 23:35:53 - 256° (WSW) 2,625 4.6 -21.6°
Reaches altitude 10° 23:36:28 10° 259° (W) 2,447 4.4 -21.6°
Maximum altitude 23:41:09 27° 316° (NW) 1,569 4.0 -21.5°
Drops below altitude 10° 23:45:50 10° 13° (NNE) 2,441 5.8 -21.4°
Sets 23:48:40 0° 26° (NNE) 3,373 6.7 -21.3°
